This demonstration page uses our WeatherBlox Daily Observations layout. Learn more.

Left ArrowRight Arrow

39.92423, -83.80882

Hourly Observations for March 14, 2022

Temp ( °F °C ) Dew Point ( °F °C ) Humidity (%) Winds ( mph kmh ) Pressure ( in mb ) Visibility ( mi km ) Precip ( " mm )
12:56 am 00:56 Clear 38 3.3 28 -2.2 68 68 SSW 7 11 30.24 1024 10 16 0.00 0.00
1:56 am 01:56 Clear 38 3.3 28 -2.2 68 68 SSW 9 15 30.24 1024 10 16 0.00 0.00
2:56 am 02:56 Clear 37 2.8 28 -2.2 70 70 SSW 8 13 30.24 1024 10 16 0.00 0.00
3:56 am 03:56 Clear 38 3.3 28 -2.2 68 68 SSW 9 15 30.24 1024 10 16 0.00 0.00
4:56 am 04:56 Clear 38 3.3 28 -2.2 68 68 SSW 10 17 30.24 1024 10 16 0.00 0.00
5:56 am 05:56 Clear 37 2.8 27 -2.8 67 67 SW 7 11 30.27 1025 10 16 0.00 0.00
6:56 am 06:56 Clear 35 1.7 28 -2.2 76 76 S 6 9 30.29 1026 10 16 0.00 0.00
7:56 am 07:56 Sunny 37 2.8 28 -2.2 70 70 SSW 8 13 30.30 1026 10 16 0.00 0.00
8:56 am 08:56 Sunny 40 4.4 27 -2.8 60 60 SSW 14 22 30.30 1026 10 16 0.00 0.00
9:56 am 09:56 Sunny 44 6.7 29 -1.7 55 55 SSW 14 22 30.30 1026 10 16 0.00 0.00
10:56 am 10:56 Sunny 49 9.4 29 -1.7 46 46 SW 17 28 30.31 1026 10 16 0.00 0.00
11:56 am 11:56 Sunny 53 11.7 31 -0.6 43 43 SW 16 26 30.30 1026 10 16 0.00 0.00
12:56 pm 12:56 Sunny 55 12.8 30 -1.1 38 38 SW 14 22 30.29 1026 10 16 0.00 0.00
1:56 pm 13:56 Sunny 57 13.9 30 -1.1 36 36 SW 16 26 30.27 1025 10 16 0.00 0.00
2:56 pm 14:56 Sunny 59 15 28 -2.2 31 31 SW 17 28 30.24 1024 10 16 0.00 0.00
3:56 pm 15:56 Sunny 61 16.1 27 -2.8 27 27 S 17 28 30.22 1023 10 16 0.00 0.00
4:56 pm 16:56 Sunny 61 16.1 28 -2.2 29 29 SW 16 26 30.21 1023 10 16 0.00 0.00
5:56 pm 17:56 Sunny 61 16.1 29 -1.7 30 30 S 13 20 30.20 1023 10 16 0.00 0.00
6:56 pm 18:56 Sunny 60 15.6 29 -1.7 31 31 S 12 19 30.21 1023 10 16 0.00 0.00
7:56 pm 19:56 Clear 55 12.8 31 -0.6 40 40 S 8 13 30.23 1024 10 16 0.00 0.00
8:56 pm 20:56 Clear 51 10.6 30 -1.1 44 44 S 5 7 30.25 1024 10 16 0.00 0.00
9:56 pm 21:56 Clear 50 10 30 -1.1 46 46 S 5 7 30.26 1025 10 16 0.00 0.00
10:56 pm 22:56 Clear 48 8.9 31 -0.6 52 52 S 7 11 30.24 1024 10 16 0.00 0.00
11:56 pm 23:56 Clear 47 8.3 31 -0.6 54 54 SSW 6 9 30.24 1024 10 16 0.00 0.00

Powered by AerisWeather